TimeEDT,TemperatureF,Dew PointF,Humidity,Sea Level PressureIn,VisibilityMPH,Wind Direction,Wind SpeedMPH,Gust SpeedMPH,PrecipitationIn,Events,Conditions,WindDirDegrees,DateUTC
12:15 AM,64.6,64.6,100,30.22,10.0,East,9.2,-,N/A,,Overcast,100,2013-08-18 04:15:00
12:35 AM,64.4,64.4,100,30.21,10.0,East,10.4,-,N/A,,Overcast,90,2013-08-18 04:35:00
12:55 AM,64.0,64.0,100,30.20,10.0,East,12.7,-,N/A,,Overcast,100,2013-08-18 04:55:00
1:15 AM,64.0,64.0,100,30.21,10.0,East,4.6,-,N/A,,Overcast,80,2013-08-18 05:15:00
1:35 AM,64.0,64.0,100,30.20,10.0,East,9.2,-,N/A,Rain,Rain,100,2013-08-18 05:35:00
1:55 AM,63.9,63.9,100,30.21,10.0,East,5.8,-,0.01,Rain,Rain,90,2013-08-18 05:55:00
2:15 AM,63.7,63.7,100,30.20,10.0,East,8.1,-,N/A,Rain,Rain,90,2013-08-18 06:15:00
2:35 AM,63.5,63.5,100,30.20,10.0,East,8.1,-,N/A,,Overcast,90,2013-08-18 06:35:00
2:55 AM,63.5,63.5,100,30.19,10.0,East,5.8,-,N/A,,Overcast,90,2013-08-18 06:55:00
3:15 AM,63.5,63.5,100,30.19,10.0,East,9.2,-,N/A,,Overcast,90,2013-08-18 07:15:00
3:35 AM,63.5,63.5,100,30.19,10.0,East,6.9,-,N/A,,Overcast,80,2013-08-18 07:35:00
3:55 AM,63.7,63.7,100,30.19,10.0,East,5.8,-,N/A,,Overcast,80,2013-08-18 07:55:00
4:15 AM,63.9,63.9,100,30.19,10.0,East,6.9,-,N/A,,Overcast,100,2013-08-18 08:15:00
4:35 AM,63.9,63.9,100,30.19,10.0,East,8.1,-,N/A,,Overcast,90,2013-08-18 08:35:00
4:55 AM,63.9,63.9,100,30.18,10.0,East,8.1,-,N/A,,Overcast,90,2013-08-18 08:55:00
5:15 AM,63.7,63.7,100,30.18,10.0,East,8.1,-,N/A,,Overcast,90,2013-08-18 09:15:00
5:35 AM,63.9,63.9,100,30.18,10.0,East,8.1,-,N/A,,Overcast,90,2013-08-18 09:35:00
5:55 AM,64.0,64.0,100,30.19,10.0,East,5.8,-,N/A,,Overcast,80,2013-08-18 09:55:00
6:15 AM,64.2,64.2,100,30.20,10.0,Calm,Calm,-,N/A,,Overcast,0,2013-08-18 10:15:00
6:35 AM,64.0,64.0,100,30.20,10.0,East,4.6,-,N/A,,Overcast,80,2013-08-18 10:35:00
6:55 AM,64.4,64.4,100,30.21,10.0,East,4.6,-,N/A,,Overcast,80,2013-08-18 10:55:00
7:15 AM,64.4,64.4,100,30.22,10.0,East,5.8,-,N/A,,Overcast,90,2013-08-18 11:15:00
7:35 AM,64.4,64.4,100,30.22,10.0,ENE,5.8,-,N/A,,Overcast,70,2013-08-18 11:35:00
7:55 AM,64.4,64.4,100,30.22,10.0,East,3.5,-,N/A,,Overcast,90,2013-08-18 11:55:00
8:15 AM,64.9,64.9,100,30.22,10.0,Calm,Calm,-,N/A,,Overcast,0,2013-08-18 12:15:00
8:35 AM,65.5,65.5,100,30.22,10.0,East,8.1,-,N/A,,Overcast,100,2013-08-18 12:35:00
8:55 AM,66.4,66.4,100,30.23,10.0,ESE,6.9,-,N/A,,Mostly Cloudy,120,2013-08-18 12:55:00
9:15 AM,66.7,66.6,99,30.24,10.0,East,5.8,-,N/A,,Overcast,90,2013-08-18 13:15:00
9:35 AM,67.3,66.7,98,30.24,10.0,East,5.8,-,N/A,,Overcast,100,2013-08-18 13:35:00
9:55 AM,68.4,67.3,96,30.24,10.0,East,6.9,-,N/A,,Overcast,90,2013-08-18 13:55:00
10:15 AM,69.3,67.5,94,30.25,10.0,ESE,6.9,-,N/A,,Mostly Cloudy,110,2013-08-18 14:15:00
10:35 AM,70.2,67.8,92,30.25,10.0,ESE,5.8,-,N/A,,Scattered Clouds,120,2013-08-18 14:35:00
10:55 AM,70.9,67.8,90,30.25,10.0,ESE,4.6,-,N/A,,Clear,120,2013-08-18 14:55:00
11:15 AM,72.0,68.2,88,30.26,10.0,ESE,3.5,-,N/A,,Scattered Clouds,110,2013-08-18 15:15:00
11:35 AM,74.3,68.9,83,30.25,10.0,ESE,4.6,-,N/A,,Mostly Cloudy,110,2013-08-18 15:35:00
11:55 AM,73.8,68.4,83,30.25,10.0,Calm,Calm,-,N/A,,Overcast,0,2013-08-18 15:55:00
12:15 PM,75.2,69.1,81,30.25,10.0,Calm,Calm,-,N/A,,Overcast,0,2013-08-18 16:15:00
12:35 PM,75.0,68.5,80,30.25,10.0,Calm,Calm,-,N/A,,Overcast,0,2013-08-18 16:35:00
12:55 PM,76.1,68.9,78,30.25,10.0,SW,5.8,-,N/A,,Overcast,220,2013-08-18 16:55:00
1:15 PM,75.7,67.5,75,30.24,10.0,Calm,Calm,-,N/A,,Mostly Cloudy,0,2013-08-18 17:15:00
1:35 PM,76.6,68.0,75,30.24,10.0,West,8.1,-,N/A,,Scattered Clouds,270,2013-08-18 17:35:00
1:55 PM,76.5,67.8,75,30.23,10.0,WSW,5.8,-,N/A,,Mostly Cloudy,250,2013-08-18 17:55:00
2:15 PM,75.9,67.5,75,30.23,10.0,West,5.8,-,N/A,,Overcast,260,2013-08-18 18:15:00
2:35 PM,76.6,68.4,75,30.23,10.0,SSW,5.8,-,N/A,,Overcast,210,2013-08-18 18:35:00
2:55 PM,77.2,68.5,75,30.21,10.0,Calm,Calm,-,N/A,,Mostly Cloudy,0,2013-08-18 18:55:00
3:15 PM,77.5,68.4,73,30.21,10.0,West,5.8,9.2,N/A,,Mostly Cloudy,280,2013-08-18 19:15:00
3:35 PM,77.5,68.9,75,30.21,10.0,WSW,10.4,-,N/A,,Overcast,250,2013-08-18 19:35:00
3:55 PM,77.9,68.0,71,30.20,10.0,WNW,3.5,-,N/A,,Mostly Cloudy,300,2013-08-18 19:55:00
4:15 PM,76.1,67.1,74,30.20,10.0,NNW,8.1,-,N/A,,Overcast,340,2013-08-18 20:15:00
4:35 PM,75.2,68.0,78,30.20,10.0,NNW,5.8,-,N/A,,Overcast,330,2013-08-18 20:35:00
4:55 PM,77.9,68.4,72,30.19,10.0,NNW,4.6,-,N/A,,Mostly Cloudy,330,2013-08-18 20:55:00
5:15 PM,77.7,67.8,71,30.19,10.0,WNW,5.8,-,N/A,,Mostly Cloudy,290,2013-08-18 21:15:00
5:35 PM,76.3,67.5,74,30.19,10.0,Calm,Calm,-,N/A,,Overcast,0,2013-08-18 21:35:00
5:55 PM,76.1,68.0,76,30.19,10.0,Calm,Calm,-,N/A,,Overcast,0,2013-08-18 21:55:00
6:15 PM,77.2,66.2,69,30.19,10.0,WNW,5.8,-,N/A,,Mostly Cloudy,300,2013-08-18 22:15:00
6:35 PM,76.3,66.2,71,30.19,10.0,West,4.6,-,N/A,,Mostly Cloudy,280,2013-08-18 22:35:00
6:55 PM,75.6,66.6,74,30.19,10.0,West,6.9,-,N/A,,Overcast,260,2013-08-18 22:55:00
7:15 PM,75.2,65.8,73,30.19,10.0,West,6.9,-,N/A,,Overcast,270,2013-08-18 23:15:00
7:35 PM,74.3,67.8,80,30.20,10.0,SW,5.8,-,N/A,,Overcast,220,2013-08-18 23:35:00
7:55 PM,72.7,69.1,88,30.21,10.0,SW,9.2,-,N/A,,Overcast,230,2013-08-18 23:55:00
8:15 PM,70.5,68.9,95,30.22,10.0,SW,6.9,-,N/A,,Overcast,230,2013-08-19 00:15:00
8:35 PM,69.8,68.9,97,30.23,10.0,SW,5.8,-,N/A,,Overcast,230,2013-08-19 00:35:00
8:55 PM,69.3,69.3,100,30.23,10.0,WSW,4.6,-,N/A,,Overcast,250,2013-08-19 00:55:00
9:15 PM,68.9,68.9,100,30.23,10.0,West,4.6,-,N/A,,Overcast,260,2013-08-19 01:15:00
9:35 PM,68.7,68.4,99,30.24,7.0,West,5.8,-,0.02,Rain,Rain,260,2013-08-19 01:35:00
9:55 PM,68.0,68.0,100,30.24,7.0,WSW,4.6,-,0.05,Rain,Light Rain,240,2013-08-19 01:55:00
10:15 PM,67.8,67.8,100,30.25,7.0,West,4.6,-,0.01,Rain,Light Rain,260,2013-08-19 02:15:00
10:35 PM,67.6,67.6,100,30.25,7.0,WSW,5.8,-,0.03,Rain,Light Rain,240,2013-08-19 02:35:00
10:55 PM,67.3,67.3,100,30.25,10.0,Calm,Calm,-,0.04,Rain,Rain,0,2013-08-19 02:55:00
11:15 PM,67.3,67.3,100,30.25,10.0,Calm,Calm,-,0.01,Rain,Light Rain,0,2013-08-19 03:15:00
11:35 PM,66.9,66.9,100,30.25,7.0,Calm,Calm,-,0.02,Rain,Light Rain,0,2013-08-19 03:35:00
11:55 PM,66.7,66.7,100,30.25,10.0,Calm,Calm,-,0.02,,Drizzle,0,2013-08-19 03:55:00